443P/PanSTARRS-Christensen (2022)

Japanese version
Home page
Updated on November 27, 2024

---------------------------------------------------------------------

* Profile

Designation 443P/2022 E1
Discovery Date March 2, 2022
Magnitude 20.6 mag
Discoverer Eric J. Christensen (Mt. Lemmon)

* Pictures

* Orbital Elements

Epoch 2023 Feb. 25.0 TT = JDT 2460000.5
T 2022 Oct. 10.15541 TT                                 Rudenko
q   2.9561776            (2000.0)            P               Q
n   0.11756054     Peri.  145.11308     -0.24243582     +0.91525930
a   4.1269416      Node   108.94283     -0.94942154     -0.15560580
e   0.2836880      Incl.   19.88762     -0.19955853     -0.37160093
P   8.38
>From 170 observations 2005 July 5-2023 June 28, mean residual 0".5.

* Magnitudes Graph

        m1 = 7.5 + 5 log d + 20.0 log r

---------------------------------------------------------------------

The orbital elements are published on M.P.E.C. 2023-N01.
The magnitudes graphs are made with Comet for Windows.

---------------------------------------------------------------------

Copyright(C) Seiichi Yoshida (comet@aerith.net). All rights reserved.